CW7016 Weather Reports


Display with metric or nautical units.
time (UTC)temp
F
wind
direction
speed
MPH
gust
MPH
rain 1hr
in
rain 24hr
in
rain mn
in
humidity
%
barometer
mb
20260510201729 78 275 3.0 11.0 0.00 0.11 0.01 56 1010.7
20260510201221 78 281 6.0 9.0 0.00 0.11 0.01 55 1010.7
20260510200735 78 336 2.0 10.0 0.00 0.11 0.01 56 1010.7
20260510200244 79 292 5.0 10.0 0.00 0.11 0.01 56 1010.8
20260510195735 79 290 2.0 8.0 0.00 0.11 0.01 55 1010.7
20260510195243 79 236 4.0 8.0 0.00 0.11 0.01 52 1010.8
20260510194736 79 294 6.0 7.0 0.00 0.11 0.01 55 1010.9
20260510194224 78 204 2.0 7.0 0.00 0.11 0.01 54 1010.8
20260510193740 78 264 1.0 9.0 0.00 0.11 0.01 58 1010.9
20260510193231 78 282 6.0 9.0 0.00 0.11 0.01 56 1011.0
20260510192723 78 300 3.0 6.0 0.00 0.11 0.01 55 1010.9
20260510192238 78 290 2.0 8.0 0.00 0.11 0.01 57 1010.9
20260510191727 78 290 3.0 8.0 0.00 0.11 0.01 54 1011.2
20260510191242 78 283 2.0 9.0 0.00 0.11 0.01 54 1011.2
20260510190729 79 288 6.0 11.0 0.00 0.11 0.01 51 1011.2
20260510190244 79 300 6.0 11.0 0.00 0.11 0.01 52 1011.1
20260510185735 79 289 5.0 10.0 0.00 0.11 0.01 55 1011.1
20260510185244 78 326 4.0 11.0 0.00 0.11 0.01 55 1011.1
20260510184740 78 205 4.0 11.0 0.00 0.11 0.01 53 1011.2
20260510184235 77 297 5.0 8.0 0.00 0.11 0.01 55 1011.2
20260510183724 77 296 2.0 11.0 0.00 0.11 0.01 56 1011.2
20260510183254 77 302 5.0 11.0 0.00 0.11 0.01 55 1011.3
20260510182743 77 279 2.0 8.0 0.00 0.11 0.01 57 1011.3
20260510182253 77 242 3.0 11.0 0.00 0.11 0.01 55 1011.3
20260510181720 78 292 3.0 11.0 0.00 0.11 0.01 56 1011.3
20260510181234 78 289 3.0 10.0 0.00 0.11 0.01 57 1011.2
20260510180726 78 297 5.0 10.0 0.00 0.11 0.01 56 1011.3
20260510180259 78 286 3.0 8.0 0.00 0.11 0.01 57 1011.2
20260510175743 77 188 4.0 8.0 0.00 0.11 0.01 61 1011.2
20260510175239 77 204 3.0 8.0 0.00 0.11 0.01 62 1011.3
20260510174730 76 201 1.0 8.0 0.00 0.11 0.01 60 1011.3
20260510174244 76 182 2.0 8.0 0.00 0.11 0.01 65 1011.2
20260510173734 76 205 2.0 7.0 0.00 0.11 0.01 59 1011.3
20260510173221 76 273 3.0 9.0 0.00 0.11 0.01 61 1011.3
20260510172735 76 317 5.0 9.0 0.00 0.11 0.01 59 1011.4
20260510172243 75 270 4.0 11.0 0.00 0.11 0.01 62 1011.4
20260510171736 75 308 3.0 11.0 0.00 0.11 0.01 60 1011.4
20260510171225 75 230 6.0 10.0 0.00 0.11 0.01 60 1011.4
20260510170739 74 239 4.0 10.0 0.00 0.11 0.01 61 1011.4
20260510170233 74 274 5.0 11.0 0.00 0.11 0.01 63 1011.4
20260510165738 73 222 2.0 11.0 0.00 0.11 0.01 65 1011.4
20260510165229 73 270 2.0 8.0 0.00 0.11 0.01 61 1011.5
20260510164739 73 265 4.0 8.0 0.00 0.11 0.01 63 1011.5
20260510164245 73 5 2.0 8.0 0.00 0.11 0.01 67 1011.6
20260510163741 73 213 2.0 8.0 0.00 0.11 0.01 63 1011.6
20260510163233 72 215 4.0 6.0 0.00 0.11 0.01 65 1011.6
20260510162725 72 179 1.0 5.0 0.00 0.11 0.01 66 1011.6
20260510162218 71 306 1.0 5.0 0.00 0.11 0.01 68 1011.6
20260510161737 71 285 2.0 5.0 0.00 0.11 0.01 69 1011.6
20260510161225 71 36 1.0 5.0 0.00 0.11 0.01 70 1011.6
20260510160739 70 345 3.0 5.0 0.00 0.11 0.01 73 1011.6
20260510160245 70 308 1.0 6.0 0.00 0.11 0.01 72 1011.7
20260510155720 70 335 2.0 7.0 0.00 0.11 0.01 71 1011.9
20260510155236 69 297 1.0 8.0 0.00 0.11 0.01 72 1011.9
20260510154744 69 194 6.0 8.0 0.00 0.11 0.01 73 1011.9
20260510154233 68 248 3.0 5.0 0.00 0.11 0.01 73 1012.0
20260510153742 67 217 0.0 5.0 0.00 0.11 0.01 76 1012.1
20260510153233 67 67 1.0 5.0 0.00 0.11 0.01 79 1012.0
20260510152722 66 250 1.0 2.0 0.00 0.11 0.01 79 1012.1
20260510152238 65 81 0.0 2.0 0.00 0.11 0.01 83 1012.1
20260510151724 65 163 1.0 3.0 0.00 0.11 0.01 83 1012.2
20260510151241 64 51 0.0 4.0 0.00 0.11 0.01 86 1012.2
20260510150728 63 286 2.0 4.0 0.00 0.11 0.01 83 1012.1
20260510150222 63 286 0.0 2.0 0.00 0.11 0.01 86 1012.0
20260510145753 62 67 0.0 4.0 0.00 0.11 0.01 89 1012.0
20260510145220 61 34 1.0 5.0 0.00 0.11 0.01 88 1012.0
20260510144755 60 292 2.0 5.0 0.00 0.11 0.01 86 1012.0
20260510144245 60 336 0.0 4.0 0.00 0.11 0.01 89 1012.0
20260510143719 60 34 2.0 4.0 0.00 0.11 0.01 91 1012.2
20260510143236 59 22 1.0 5.0 0.00 0.11 0.01 91 1012.4
20260510142724 59 194 1.0 5.0 0.00 0.11 0.01 92 1012.2
20260510142256 58 173 2.0 4.0 0.00 0.11 0.01 92 1012.2
20260510141722 58 175 3.0 4.0 0.00 0.11 0.01 93 1012.2
20260510141240 58 288 0.0 4.0 0.00 0.11 0.01 94 1012.2
20260510140800 57 287 1.0 3.0 0.00 0.11 0.01 94 1012.3
20260510140256 57 287 2.0 4.0 0.00 0.11 0.01 94 1012.3
20260510135723 56 287 3.0 4.0 0.00 0.11 0.01 94 1012.2
20260510135238 56 287 0.0 4.0 0.00 0.11 0.01 94 1012.2
20260510134724 56 239 0.0 2.0 0.00 0.11 0.01 94 1012.0
20260510134221 56 239 0.0 4.0 0.00 0.11 0.01 95 1012.0
20260510133735 56 239 1.0 4.0 0.00 0.11 0.01 94 1012.1
20260510133223 55 239 1.0 4.0 0.00 0.11 0.01 94 1012.1
20260510132754 55 239 2.0 4.0 0.00 0.11 0.01 94 1012.2
20260510132222 55 238 2.0 4.0 0.00 0.11 0.01 94 1012.2
20260510131737 55 247 0.0 4.0 0.00 0.11 0.01 95 1012.2
20260510131227 55 205 0.0 4.0 0.00 0.11 0.01 95 1012.1
20260510130740 55 303 1.0 4.0 0.00 0.11 0.01 95 1012.2
20260510130233 54 32 0.0 4.0 0.00 0.11 0.01 95 1012.1
20260510125721 54 32 1.0 4.0 0.00 0.11 0.01 95 1011.9
20260510125237 54 32 0.0 0.0 0.00 0.11 0.01 94 1011.8
20260510124755 54 32 0.0 0.0 0.00 0.11 0.01 95 1011.9
20260510124223 54 32 0.0 0.0 0.00 0.11 0.01 95 1011.8
20260510123739 54 32 0.0 0.0 0.00 0.11 0.01 94 1011.6
20260510123227 54 32 0.0 0.0 0.00 0.11 0.01 94 1011.5
20260510122742 54 32 0.0 0.0 0.00 0.11 0.01 94 1011.7
20260510122229 53 32 0.0 0.0 0.00 0.11 0.01 95 1011.7
20260510121744 53 32 0.0 0.0 0.00 0.11 0.01 95 1011.7
20260510121234 53 32 0.0 0.0 0.00 0.11 0.01 95 1011.7
20260510120743 53 32 0.0 0.0 0.00 0.11 0.01 94 1011.7
20260510120235 53 32 0.0 0.0 0.00 0.11 0.01 94 1011.6
20260510115723 53 32 0.0 0.0 0.00 0.11 0.01 94 1011.4
20260510115242 53 32 0.0 2.0 0.00 0.11 0.01 94 1011.4
20260510114732 53 32 1.0 2.0 0.00 0.11 0.01 94 1011.5
20260510114222 53 32 0.0 4.0 0.00 0.11 0.01 95 1011.2
20260510113741 53 32 0.0 5.0 0.00 0.11 0.01 94 1011.2
20260510113231 53 32 4.0 5.0 0.00 0.11 0.01 95 1011.3
20260510112724 53 32 0.0 2.0 0.00 0.11 0.01 95 1011.2
20260510112242 52 32 0.0 2.0 0.00 0.11 0.01 95 1011.1
20260510111734 52 32 0.0 4.0 0.00 0.11 0.01 94 1011.1
20260510111244 52 32 0.0 4.0 0.00 0.11 0.01 94 1011.1
20260510110733 52 32 3.0 4.0 0.00 0.11 0.01 94 1011.0
20260510110239 52 46 2.0 4.0 0.00 0.11 0.01 95 1011.0
20260510105727 52 46 0.0 2.0 0.00 0.11 0.01 95 1011.0
20260510105306 52 46 0.0 4.0 0.00 0.11 0.01 95 1010.9
20260510104732 52 46 0.0 5.0 0.00 0.11 0.01 95 1010.9
20260510104220 51 61 1.0 7.0 0.00 0.11 0.01 95 1010.7
20260510103804 51 61 4.0 7.0 0.00 0.11 0.01 95 1010.4
20260510103235 51 47 2.0 5.0 0.00 0.11 0.01 94 1010.5
20260510102742 51 49 1.0 2.0 0.00 0.11 0.01 94 1010.5
20260510102305 51 49 0.0 0.0 0.00 0.11 0.01 94 1010.6
20260510101730 50 49 0.0 0.0 0.00 0.11 0.01 94 1010.6
20260510101243 50 49 0.0 0.0 0.00 0.11 0.01 94 1010.7
20260510100733 50 49 0.0 0.0 0.00 0.11 0.01 94 1010.7
20260510100242 50 49 0.0 0.0 0.01 0.11 0.01 94 1010.7
20260510095733 50 49 0.0 0.0 0.01 0.11 0.01 94 1010.6
20260510095251 50 49 0.0 2.0 0.01 0.11 0.01 94 1010.6
20260510094743 50 49 0.0 4.0 0.01 0.11 0.01 94 1010.6
20260510094235 50 49 1.0 4.0 0.01 0.11 0.01 94 1010.6
20260510093722 50 81 2.0 4.0 0.01 0.11 0.01 94 1010.7
20260510093240 50 348 1.0 4.0 0.01 0.11 0.01 94 1010.6
20260510092744 50 311 1.0 5.0 0.01 0.11 0.01 94 1010.6
20260510092259 50 13 3.0 7.0 0.01 0.11 0.01 93 1010.5
20260510091727 50 325 2.0 5.0 0.01 0.11 0.01 93 1010.7
20260510091300 50 57 4.0 5.0 0.01 0.11 0.01 93 1010.2
20260510090748 50 349 2.0 5.0 0.01 0.11 0.01 93 1010.6
20260510090242 49 319 3.0 6.0 0.00 0.10 0.00 93 1010.7
20260510085734 49 10 2.0 6.0 0.00 0.10 0.00 93 1010.2
20260510085221 49 21 3.0 5.0 0.00 0.10 0.00 93 1010.1
20260510084738 49 80 2.0 4.0 0.00 0.10 0.00 93 1010.0
20260510084233 49 80 1.0 4.0 0.00 0.10 0.00 93 1009.9
20260510083722 49 80 0.0 0.0 0.00 0.10 0.00 93 1009.9
20260510083240 49 80 0.0 0.0 0.00 0.10 0.00 93 1009.9
20260510082728 49 80 0.0 0.0 0.00 0.10 0.00 93 1009.9
20260510082243 49 80 0.0 2.0 0.00 0.10 0.00 93 1009.9
20260510081733 49 80 0.0 2.0 0.00 0.10 0.00 92 1009.9
20260510081222 49 80 0.0 2.0 0.00 0.10 0.00 92 1009.9
20260510080740 49 80 1.0 2.0 0.00 0.10 0.00 92 1009.9
20260510080231 49 80 1.0 2.0 0.00 0.10 0.00 92 1010.0
20260510075740 49 80 0.0 2.0 0.00 0.10 0.00 92 1010.0
20260510075228 49 80 0.0 3.0 0.00 0.10 0.00 92 1009.9
20260510074743 49 80 0.0 3.0 0.00 0.10 0.00 92 1009.9
20260510074231 49 80 0.0 4.0 0.00 0.10 0.00 93 1009.8
20260510073801 49 80 1.0 4.0 0.00 0.10 0.00 93 1009.8
20260510073231 49 80 4.0 4.0 0.00 0.10 0.00 93 1009.8
20260510072720 49 80 0.0 0.0 0.00 0.10 0.00 93 1009.8
20260510072258 49 80 0.0 0.0 0.00 0.10 0.00 92 1009.8
20260510071726 49 80 0.0 0.0 0.00 0.10 0.00 92 1009.7
20260510071259 49 80 0.0 0.0 0.00 0.10 0.00 92 1009.7
20260510070728 49 80 0.0 0.0 0.00 0.10 0.00 92 1009.6
20260510070245 49 80 0.0 0.0 0.00 0.10 0.00 92 1009.5
20260510065735 49 80 0.0 0.0 0.00 0.10 0.00 92 1009.3
20260510065224 49 80 0.0 0.0 0.00 0.10 0.00 92 1009.2
20260510064742 49 80 0.0 0.0 0.00 0.10 0.00 92 1009.2
20260510064302 49 80 0.0 0.0 0.00 0.10 0.00 92 1009.1
20260510063757 49 80 0.0 0.0 0.00 0.10 0.00 92 1009.2
20260510063226 49 80 0.0 0.0 0.00 0.10 0.00 92 1009.2
20260510062740 49 80 0.0 0.0 0.00 0.10 0.00 92 1009.3
20260510062258 49 80 0.0 2.0 0.00 0.10 0.00 92 1009.3
20260510061727 49 80 0.0 4.0 0.00 0.10 0.00 92 1009.3
20260510061241 49 80 2.0 4.0 0.00 0.10 0.00 92 1009.3
20260510060801 49 80 0.0 0.0 0.00 0.10 0.00 91 1009.3
20260510060222 49 80 0.0 0.0 0.00 0.10 0.00 91 1009.4
20260510055738 49 80 0.0 0.0 0.00 0.10 0.00 91 1009.5
20260510055228 49 80 0.0 0.0 0.00 0.10 0.00 91 1009.6
20260510054743 49 80 0.0 0.0 0.00 0.10 0.00 91 1009.5
20260510054234 49 80 0.0 0.0 0.00 0.10 0.00 91 1009.6
20260510053723 49 80 0.0 0.0 0.00 0.10 0.00 91 1009.6
20260510053238 50 80 0.0 0.0 0.00 0.10 0.00 91 1009.7
20260510052745 49 80 0.0 0.0 0.00 0.10 0.00 91 1009.7
20260510052237 49 80 0.0 0.0 0.00 0.10 0.00 91 1009.7
20260510051730 49 80 0.0 0.0 0.00 0.10 0.00 91 1009.7
20260510051245 49 80 0.0 0.0 0.00 0.10 0.00 91 1009.7
20260510050735 49 80 0.0 0.0 0.00 0.10 0.00 91 1009.8
20260510050243 49 80 0.0 0.0 0.00 0.10 0.00 91 1009.7
20260510045740 49 80 0.0 0.0 0.00 0.10 0.00 91 1009.8
20260510045231 50 80 0.0 0.0 0.00 0.10 0.00 91 1009.9
20260510044723 50 80 0.0 0.0 0.00 0.10 0.00 91 1009.9
20260510044238 50 80 0.0 0.0 0.00 0.10 0.00 90 1009.9
20260510043730 50 80 0.0 0.0 0.00 0.10 0.00 90 1010.0
20260510043245 50 80 0.0 0.0 0.00 0.10 0.00 91 1009.9
20260510042735 50 80 0.0 0.0 0.00 0.10 0.00 91 1010.0
20260510042224 50 80 0.0 0.0 0.00 0.10 0.00 91 1010.0
20260510041738 50 80 0.0 0.0 0.00 0.10 0.00 91 1010.0
20260510041227 50 80 0.0 0.0 0.00 0.10 0.00 91 1010.0
20260510040740 50 80 0.0 0.0 0.00 0.10 0.10 91 1010.0
20260510040231 50 80 0.0 0.0 0.00 0.10 0.10 91 1009.9
20260510035742 50 80 0.0 0.0 0.00 0.10 0.10 91 1009.9
20260510035233 50 80 0.0 0.0 0.00 0.10 0.10 90 1009.9
20260510034741 50 80 0.0 0.0 0.00 0.10 0.10 90 1009.8
20260510034238 50 80 0.0 0.0 0.00 0.10 0.10 90 1009.9
20260510033732 50 80 0.0 0.0 0.00 0.10 0.10 90 1009.8
20260510033240 50 80 0.0 0.0 0.00 0.10 0.10 90 1009.7
20260510032727 50 80 0.0 0.0 0.00 0.10 0.10 90 1009.6
20260510032243 50 80 0.0 0.0 0.00 0.10 0.10 90 1009.6
20260510031732 50 80 0.0 0.0 0.00 0.10 0.10 90 1009.6
20260510031222 50 80 0.0 0.0 0.00 0.10 0.10 89 1009.7
20260510030805 51 80 0.0 0.0 0.00 0.10 0.10 89 1009.7
20260510030234 51 80 0.0 0.0 0.00 0.10 0.10 89 1009.6
20260510025724 51 80 0.0 0.0 0.00 0.10 0.10 89 1009.6
20260510025239 51 80 0.0 0.0 0.00 0.10 0.10 89 1009.6
20260510024748 51 80 0.0 0.0 0.00 0.10 0.10 89 1009.6
20260510024240 51 80 0.0 0.0 0.00 0.10 0.10 89 1009.6
20260510023733 51 80 0.0 0.0 0.00 0.10 0.10 89 1009.6
20260510023224 51 80 0.0 0.0 0.00 0.10 0.10 89 1009.6
20260510022739 52 80 0.0 0.0 0.00 0.10 0.10 89 1009.5
20260510022226 52 80 0.0 0.0 0.00 0.10 0.10 89 1009.5
20260510021722 52 80 0.0 0.0 0.00 0.10 0.10 89 1009.4
20260510021303 52 80 0.0 0.0 0.00 0.10 0.10 89 1009.3
20260510020735 52 80 0.0 0.0 0.00 0.10 0.10 88 1009.4
20260510020224 52 80 0.0 0.0 0.00 0.10 0.10 89 1009.3
20260510015739 53 80 0.0 0.0 0.00 0.10 0.10 89 1009.3
20260510015243 53 80 0.0 0.0 0.00 0.10 0.10 88 1009.3
20260510014800 53 80 0.0 0.0 0.00 0.10 0.10 88 1009.4
20260510014230 53 80 0.0 0.0 0.00 0.10 0.10 88 1009.5
20260510013721 53 80 0.0 0.0 0.00 0.10 0.10 88 1009.5
20260510013237 53 80 0.0 0.0 0.00 0.10 0.10 88 1009.6
20260510012744 54 80 0.0 0.0 0.00 0.10 0.10 88 1009.5
20260510012242 54 80 0.0 0.0 0.00 0.10 0.10 88 1009.5
20260510011733 54 80 0.0 0.0 0.00 0.10 0.10 87 1009.4
20260510011223 54 80 0.0 0.0 0.00 0.10 0.10 87 1009.2
20260510010739 54 80 0.0 0.0 0.00 0.10 0.10 87 1009.1
20260510010231 55 80 0.0 0.0 0.00 0.10 0.10 87 1009.0
20260510005744 55 80 0.0 0.0 0.00 0.10 0.10 87 1009.1
20260510005306 55 80 0.0 0.0 0.00 0.10 0.10 87 1009.1
20260510004759 55 80 0.0 0.0 0.00 0.10 0.10 87 1009.1
20260510004227 56 80 0.0 0.0 0.00 0.10 0.10 87 1009.0
20260510003721 56 80 0.0 1.0 0.00 0.10 0.10 87 1009.0
20260510003237 56 80 0.0 1.0 0.00 0.10 0.10 87 1008.9
20260510002726 56 80 0.0 0.0 0.00 0.10 0.10 87 1008.9
20260510002245 56 80 0.0 0.0 0.00 0.10 0.10 87 1008.9
20260510001736 57 80 0.0 0.0 0.00 0.10 0.10 86 1008.9
20260510001242 57 80 0.0 0.0 0.00 0.10 0.10 86 1008.9
20260510000732 57 80 0.0 0.0 0.00 0.10 0.10 86 1008.8
20260510000241 57 80 0.0 1.0 0.00 0.10 0.10 86 1008.9
20260509235731 58 80 0.0 1.0 0.00 0.10 0.10 86 1008.9
20260509235240 58 79 0.0 0.0 0.00 0.10 0.10 86 1009.0
20260509234732 58 80 0.0 0.0 0.00 0.10 0.10 86 1009.0
20260509234220 58 80 0.0 2.0 0.00 0.10 0.10 86 1008.9
20260509233755 58 80 0.0 2.0 0.00 0.10 0.10 86 1008.8
20260509233255 58 80 0.0 2.0 0.00 0.10 0.10 87 1008.8
20260509232722 58 80 0.0 4.0 0.00 0.10 0.10 87 1008.7
20260509232240 59 80 0.0 4.0 0.00 0.10 0.10 87 1008.7
20260509231734 58 79 0.0 4.0 0.00 0.10 0.10 88 1008.6
20260509231243 58 80 1.0 5.0 0.00 0.10 0.10 88 1008.5
20260509230805 58 80 2.0 6.0 0.00 0.10 0.10 88 1008.5
20260509230234 58 44 2.0 6.0 0.00 0.10 0.10 89 1008.6
20260509225722 58 88 1.0 5.0 0.00 0.10 0.10 89 1008.7
20260509225238 58 88 2.0 6.0 0.00 0.10 0.10 88 1008.6
20260509224727 58 98 0.0 6.0 0.00 0.10 0.10 87 1008.6
20260509224220 58 79 1.0 5.0 0.01 0.10 0.10 87 1008.6
20260509223734 58 111 0.0 6.0 0.04 0.10 0.10 87 1008.7
20260509223228 58 61 3.0 7.0 0.07 0.10 0.10 86 1008.7
20260509222802 58 63 1.0 7.0 0.10 0.10 0.10 86 1008.8
20260509222252 59 84 2.0 6.0 0.10 0.10 0.10 86 1008.9
20260509221717 59 76 4.0 5.0 0.10 0.10 0.10 86 1009.1
20260509221302 59 76 1.0 5.0 0.10 0.10 0.10 86 1009.0
20260509220747 59 76 2.0 5.0 0.10 0.10 0.10 85 1009.0
20260509220242 59 63 3.0 5.0 0.10 0.10 0.10 85 1009.1
20260509215732 60 63 0.0 2.0 0.10 0.10 0.10 85 1009.2
20260509215242 60 63 1.0 5.0 0.10 0.10 0.10 83 1009.3
20260509214733 60 63 1.0 5.0 0.10 0.10 0.10 82 1009.4
20260509214244 60 20 3.0 6.0 0.09 0.09 0.09 81 1009.3
20260509213735 60 25 4.0 5.0 0.07 0.07 0.07 80 1009.4
20260509213244 60 73 0.0 5.0 0.04 0.04 0.04 78 1009.5
20260509212732 60 360 3.0 5.0 0.00 0.00 0.00 76 1009.6
20260509212245 61 333 1.0 6.0 0.00 0.00 0.00 75 1009.7
20260509211802 61 313 1.0 6.0 0.00 0.00 0.00 74 1009.5
20260509211232 62 294 0.0 5.0 0.00 0.00 0.00 74 1009.4
20260509210804 62 5 1.0 7.0 0.00 0.00 0.00 74 1009.3
20260509210234 62 37 2.0 7.0 0.00 0.00 0.00 73 1009.1
20260509205723 62 5 4.0 7.0 0.00 0.00 0.00 73 1009.1
20260509205258 62 48 3.0 5.0 0.00 0.00 0.00 73 1009.1
20260509204745 62 48 4.0 5.0 0.00 0.00 0.00 74 1008.8
20260509204238 62 88 0.0 6.0 0.00 0.00 0.00 74 1008.8
20260509203726 62 26 4.0 6.0 0.00 0.00 0.00 75 1008.9
20260509203240 62 19 1.0 7.0 0.00 0.00 0.00 75 1008.9
20260509202756 62 22 3.0 7.0 0.00 0.00 0.00 75 1009.0
20260509202226 62 21 4.0 8.0 0.00 0.00 0.00 75 1009.0